Weather History for KTPH - February, 2013

Change the Weather History Date:

Friday, February 8, 2013

  Actual Average Record
Temperature  
Mean Temperature 31 °F 35 °F  
Max Temperature 36 °F 48 °F 66 °F (1996)
Min Temperature 26 °F 23 °F -3 °F (1989)
Degree Days  
Heating Degree Days 34 30  
Month to date heating degree days 205 242  
Since 1 July heating degree days 3211 3493  
Cooling Degree Days 0 0  
Month to date cooling degree days 0 0  
Year to date cooling degree days 0 0  
Moisture  
Dew Point 19 °F    
Average Humidity 55    
Maximum Humidity 75    
Minimum Humidity 35    
Precipitation  
Precipitation T in 0.01 in 0.30 in (1981)
Month to date precipitation T 0.13  
Year to date precipitation 0.30 0.62  
Sea Level Pressure  
Sea Level Pressure 29.68 in    
Wind  
Wind Speed 25 mph (NW)    
Max Wind Speed 36 mph    
Max Gust Speed 46 mph    
Visibility 8 miles    
Events Snow    
T = Trace of Precipitation, MM = Missing Value Source: NWS Daily Summary

Daily Weather History Graph

Daily Weather History Graph

Search for Another Location

Airport or City:

Trip Planner

Search our weather history database for the weather conditions in past years. The results will help you decide how hot, cold, wet, or windy it might be!

Date:

Astronomy

Feb. 08, 2013 Rise Set
Actual Time 6:45 AM PST 5:19 PM PST
Civil Twilight 6:18 AM PST 5:47 PM PST
Nautical Twilight 5:47 AM PST 6:18 PM PST
Astronomical Twilight 5:16 AM PST 6:48 PM PST
Moon 5:17 AM PST (2/8) 3:58 PM PST (2/8)
Length of Visible Light 11h 28m
Length of Day
10h 33m
Waning Crescent, 3% of the Moon is Illuminated
Feb 8
Waning Crescent
Feb 9
New
Feb 17
First Quarter
Feb 25
Full
Mar 4
Last Quarter

Hourly Weather History & Observations

Time (PST) Temp. Windchill Dew Point Humidity Pressure Visibility Wind Dir Wind Speed Gust Speed Precip Events Conditions
12:56 AM 32.0 °F 20.5 °F 17.1 °F 54% 29.66 in 10.0 mi WNW 18.4 mph 27.6 mph N/A   Clear
1:56 AM 30.9 °F 17.5 °F 18.0 °F 59% 29.65 in 10.0 mi NW 24.2 mph 32.2 mph N/A   Clear
2:56 AM 30.0 °F 16.0 °F 18.0 °F 61% 29.63 in 10.0 mi NW 25.3 mph 34.5 mph N/A   Partly Cloudy
3:56 AM 28.9 °F 15.1 °F 16.0 °F 58% 29.64 in 10.0 mi NW 23.0 mph 34.5 mph N/A   Mostly Cloudy
4:56 AM 28.0 °F 14.6 °F 15.1 °F 58% 29.65 in 10.0 mi NW 20.7 mph 26.5 mph N/A   Clear
5:56 AM 28.0 °F 15.7 °F 15.1 °F 58% 29.66 in 10.0 mi NW 17.3 mph 26.5 mph N/A   Mostly Cloudy
6:56 AM 27.0 °F 11.0 °F 17.1 °F 66% 29.67 in 10.0 mi NW 28.8 mph 34.5 mph N/A   Overcast
7:56 AM 28.0 °F 13.0 °F 18.0 °F 66% 29.67 in 10.0 mi NW 26.5 mph 34.5 mph N/A   Mostly Cloudy
8:56 AM 28.0 °F 13.6 °F 21.0 °F 75% 29.68 in 4.0 mi NW 24.2 mph 35.7 mph 0.00 in Snow Light Snow
9:56 AM 32.0 °F 18.1 °F 21.0 °F 64% 29.69 in 10.0 mi NW 27.6 mph 35.7 mph 0.00 in   Overcast
10:56 AM 30.9 °F 15.9 °F 21.9 °F 69% 29.69 in 4.0 mi WNW 31.1 mph 41.4 mph 0.00 in Snow Light Snow
11:03 AM 30.2 °F 15.7 °F 21.2 °F 69% 29.68 in 4.0 mi NW 27.6 mph 38.0 mph 0.00 in Snow Light Snow
11:12 AM 30.2 °F 15.7 °F 21.2 °F 69% 29.68 in 6.0 mi NW 27.6 mph 35.7 mph 0.00 in Snow Light Snow
11:56 AM 30.9 °F 17.2 °F 21.0 °F 67% 29.68 in 4.0 mi NW 25.3 mph 36.8 mph 0.00 in Snow Light Snow
12:46 PM 30.2 °F 15.7 °F 21.2 °F 69% 29.65 in 4.0 mi NW 27.6 mph 36.8 mph 0.00 in Snow Light Snow
12:56 PM 32.0 °F 18.6 °F 19.9 °F 61% 29.67 in 5.0 mi NW 25.3 mph 39.1 mph 0.00 in Snow Light Snow
1:06 PM 33.8 °F 20.1 °F 19.4 °F 56% 29.65 in 4.0 mi NW 29.9 mph 39.1 mph 0.00 in Snow Light Snow
1:12 PM 32.0 °F 18.1 °F 21.2 °F 64% 29.65 in 4.0 mi NW 27.6 mph 38.0 mph 0.00 in Snow Light Snow
1:48 PM 33.8 °F 19.9 °F 17.6 °F 52% 29.64 in 5.0 mi NW 31.1 mph 44.9 mph 0.00 in Snow Light Snow
1:56 PM 33.1 °F 18.7 °F 17.1 °F 52% 29.66 in 7.0 mi NW 32.2 mph 41.4 mph 0.00 in   Scattered Clouds
2:56 PM 33.1 °F 19.3 °F 19.0 °F 56% 29.67 in 6.0 mi NW 28.8 mph 43.7 mph 0.00 in Snow Light Snow
3:56 PM 30.9 °F 16.2 °F 18.0 °F 59% 29.70 in 8.0 mi NW 29.9 mph 41.4 mph 0.00 in   Mostly Cloudy
4:56 PM 28.9 °F 13.7 °F 19.9 °F 69% 29.71 in 7.0 mi NW 28.8 mph 35.7 mph 0.00 in Snow Light Snow
5:56 PM 28.9 °F 14.3 °F 21.0 °F 72% 29.71 in 10.0 mi NW 26.5 mph 38.0 mph 0.00 in   Overcast
6:56 PM 28.9 °F 14.8 °F 19.9 °F 69% 29.74 in 10.0 mi NW 24.2 mph 31.1 mph N/A   Overcast
7:56 PM 28.0 °F 13.6 °F 21.0 °F 75% 29.74 in 10.0 mi NW 24.2 mph 35.7 mph N/A   Overcast
8:56 PM 28.0 °F 12.5 °F 21.0 °F 75% 29.74 in 10.0 mi NW 28.8 mph 36.8 mph N/A   Overcast
9:56 PM 28.0 °F 15.7 °F 19.9 °F 72% 29.75 in 10.0 mi NNW 17.3 mph 29.9 mph N/A   Overcast
10:56 PM 27.0 °F 12.2 °F 19.9 °F 75% 29.76 in 10.0 mi NNW 24.2 mph 31.1 mph 0.00 in Snow Light Snow
11:56 PM 26.1 °F 10.1 °F 19.0 °F 75% 29.77 in 10.0 mi NW 27.6 mph 38.0 mph 0.00 in   Overcast